QFA0227 YMML-YSSY

Flight info

Callsign QFA0227
Flight time 1h 6m
Altitude 35000
Route ML H129 DOSEL Y59 RIVET
Aircraft B738/M-SDE2E3FGHIRWXY/LB1

Departure

Time 2026-04-23 10:54
Airport Melbourne Airport (YMML)

Arrival

Time 2026-04-23 12:00
Airport Sydney Kingsford Smith International Airport (YSSY)
Time Latitude Longitude Altitude Speed Heading
2026-04-23 10:23 -37.66693 144.85002 409 ft 0 kts 261°
2026-04-23 10:43 -37.66690 144.85033 410 ft 1 kts 261°
2026-04-23 10:43 -37.66688 144.85051 410 ft 1 kts 268°
2026-04-23 10:44 -37.66689 144.85066 410 ft 1 kts 286°
2026-04-23 10:44 -37.66692 144.85077 410 ft 1 kts 303°
2026-04-23 10:44 -37.66697 144.85084 410 ft 1 kts 318°
2026-04-23 10:44 -37.66704 144.85092 410 ft 1 kts 334°
2026-04-23 10:45 -37.66710 144.85095 410 ft 0 kts 346°
2026-04-23 10:45 -37.66709 144.85094 410 ft 0 kts 346°
2026-04-23 10:45 -37.66703 144.85092 410 ft 1 kts 346°
2026-04-23 10:45 -37.66696 144.85091 410 ft 0 kts 346°
2026-04-23 10:49 -37.66688 144.85088 410 ft 2 kts 346°
2026-04-23 10:49 -37.66659 144.85080 409 ft 6 kts 347°
2026-04-23 10:49 -37.66600 144.85068 409 ft 10 kts 353°
2026-04-23 10:49 -37.66539 144.85039 409 ft 9 kts 307°
2026-04-23 10:50 -37.66540 144.84911 408 ft 14 kts 262°
2026-04-23 10:50 -37.66557 144.84830 406 ft 11 kts 232°
2026-04-23 10:50 -37.66623 144.84770 405 ft 13 kts 232°
2026-04-23 10:50 -37.66650 144.84631 399 ft 18 kts 260°
2026-04-23 10:51 -37.66670 144.84453 395 ft 22 kts 263°
2026-04-23 10:51 -37.66694 144.84258 393 ft 17 kts 260°
2026-04-23 10:51 -37.66769 144.84189 391 ft 15 kts 171°
2026-04-23 10:51 -37.66892 144.84213 389 ft 20 kts 173°
2026-04-23 10:52 -37.67056 144.84239 386 ft 26 kts 174°
2026-04-23 10:52 -37.67256 144.84279 382 ft 32 kts 171°
2026-04-23 10:52 -37.67492 144.84325 377 ft 30 kts 171°
2026-04-23 10:52 -37.67699 144.84363 370 ft 20 kts 171°
2026-04-23 10:53 -37.67813 144.84343 367 ft 16 kts 217°
2026-04-23 10:53 -37.67861 144.84207 363 ft 18 kts 262°
2026-04-23 10:53 -37.67870 144.84042 360 ft 19 kts 284°
2026-04-23 10:53 -37.67753 144.83948 363 ft 32 kts 351°
2026-04-23 10:54 -37.67216 144.83849 379 ft 114 kts 351°
2026-04-23 10:54 -37.66128 144.83643 546 ft 169 kts 351°
2026-04-23 10:54 -37.64886 144.83360 1489 ft 161 kts 348°
2026-04-23 10:54 -37.63807 144.82967 2615 ft 144 kts 339°
2026-04-23 10:55 -37.62827 144.82323 3159 ft 164 kts 330°
2026-04-23 10:55 -37.61853 144.81482 3114 ft 175 kts 326°
2026-04-23 10:55 -37.60732 144.80721 2757 ft 172 kts 353°
2026-04-23 10:55 -37.59573 144.80963 2706 ft 152 kts 30°
2026-04-23 10:56 -37.58478 144.81848 2880 ft 187 kts 33°
2026-04-23 10:56 -37.57408 144.82716 3800 ft 185 kts 31°
2026-04-23 10:56 -37.56177 144.83597 4425 ft 196 kts 27°
2026-04-23 10:56 -37.54763 144.84511 4973 ft 235 kts 28°
2026-04-23 10:57 -37.53099 144.85585 5733 ft 263 kts 28°
2026-04-23 10:57 -37.51268 144.86766 7097 ft 270 kts 27°
2026-04-23 10:57 -37.49494 144.87913 8637 ft 268 kts 27°
2026-04-23 10:57 -37.47593 144.89139 9672 ft 285 kts 27°
2026-04-23 10:58 -37.45689 144.90363 10961 ft 287 kts 27°
2026-04-23 10:58 -37.43920 144.91606 11731 ft 303 kts 38°
2026-04-23 10:58 -37.42506 144.93668 12370 ft 323 kts 56°
2026-04-23 10:58 -37.41146 144.96115 13056 ft 342 kts 55°
2026-04-23 10:59 -37.39727 144.98644 13742 ft 359 kts 55°
2026-04-23 10:59 -37.38266 145.01231 14833 ft 362 kts 55°
2026-04-23 10:59 -37.36760 145.03900 15512 ft 377 kts 55°
2026-04-23 10:59 -37.35196 145.06665 16015 ft 397 kts 55°
2026-04-23 11:00 -37.33558 145.09558 16590 ft 412 kts 55°
2026-04-23 11:00 -37.31913 145.12462 17724 ft 412 kts 55°
2026-04-23 11:00 -37.29694 145.16371 18774 ft 422 kts 55°
2026-04-23 11:00 -37.28538 145.18408 19281 ft 427 kts 55°
2026-04-23 11:01 -37.26831 145.21410 20252 ft 429 kts 56°
2026-04-23 11:01 -37.25100 145.24452 20946 ft 436 kts 56°
2026-04-23 11:01 -37.23323 145.27570 21727 ft 441 kts 56°
2026-04-23 11:01 -37.21535 145.30707 22533 ft 445 kts 56°
2026-04-23 11:02 -37.19737 145.33862 23178 ft 452 kts 56°
2026-04-23 11:02 -37.17904 145.37073 23909 ft 456 kts 56°
2026-04-23 11:02 -37.16050 145.40321 24185 ft 465 kts 56°
2026-04-23 11:02 -37.14160 145.43617 25182 ft 461 kts 56°
2026-04-23 11:03 -37.12333 145.46800 26452 ft 450 kts 57°
2026-04-23 11:03 -37.10550 145.49910 27267 ft 450 kts 57°
2026-04-23 11:03 -37.08695 145.53142 27863 ft 454 kts 57°
2026-04-23 11:03 -37.06850 145.56351 28803 ft 449 kts 57°
2026-04-23 11:04 -37.05051 145.59477 29654 ft 446 kts 58°
2026-04-23 11:04 -37.03244 145.62619 30228 ft 448 kts 58°
2026-04-23 11:04 -37.01421 145.65782 30868 ft 449 kts 57°
2026-04-23 11:04 -36.99596 145.68942 31566 ft 447 kts 58°
2026-04-23 11:05 -36.97786 145.72078 32179 ft 447 kts 58°
2026-04-23 11:05 -36.95968 145.75223 32724 ft 449 kts 58°
2026-04-23 11:05 -36.94154 145.78358 33346 ft 447 kts 58°
2026-04-23 11:05 -36.92346 145.81482 33910 ft 447 kts 58°
2026-04-23 11:06 -36.88650 145.87854 35186 ft 445 kts 59°
2026-04-23 11:06 -36.86852 145.90955 35387 ft 452 kts 59°
2026-04-23 11:06 -36.84979 145.94182 35413 ft 464 kts 59°
2026-04-23 11:07 -36.83054 145.97492 35406 ft 476 kts 59°
2026-04-23 11:07 -36.79124 146.04233 35397 ft 482 kts 59°
2026-04-23 11:08 -36.75221 146.10915 35410 ft 477 kts 59°
2026-04-23 11:08 -36.71980 146.16455 35407 ft 477 kts 59°
2026-04-23 11:09 -36.67426 146.24229 35408 ft 477 kts 59°
2026-04-23 11:09 -36.63518 146.30882 35417 ft 476 kts 59°
2026-04-23 11:10 -36.59623 146.37503 35412 ft 476 kts 59°
2026-04-23 11:10 -36.55833 146.43929 35415 ft 476 kts 59°
2026-04-23 11:11 -36.51941 146.50519 35412 ft 476 kts 59°
2026-04-23 11:11 -36.48016 146.57149 35413 ft 476 kts 59°
2026-04-23 11:12 -36.44107 146.63739 35415 ft 474 kts 59°
2026-04-23 11:12 -36.40207 146.70306 35420 ft 475 kts 59°
2026-04-23 11:13 -36.36066 146.77260 35421 ft 475 kts 59°
2026-04-23 11:13 -36.32124 146.83868 35426 ft 474 kts 59°
2026-04-23 11:14 -36.28207 146.90424 35423 ft 474 kts 59°
2026-04-23 11:14 -36.24307 146.96936 35427 ft 472 kts 59°
2026-04-23 11:15 -36.20420 147.03415 35427 ft 472 kts 59°
2026-04-23 11:15 -36.16510 147.09918 35434 ft 473 kts 59°
2026-04-23 11:16 -36.12566 147.16467 35425 ft 473 kts 59°
2026-04-23 11:16 -36.08550 147.23123 35415 ft 473 kts 59°
2026-04-23 11:17 -36.04571 147.29698 35422 ft 472 kts 59°
2026-04-23 11:17 -36.00561 147.36319 35427 ft 472 kts 59°
2026-04-23 11:18 -35.96600 147.42848 35427 ft 473 kts 59°
2026-04-23 11:18 -35.92606 147.49414 35430 ft 473 kts 59°
2026-04-23 11:19 -35.88542 147.56085 35416 ft 473 kts 59°
2026-04-23 11:19 -35.84520 147.62672 35412 ft 474 kts 59°
2026-04-23 11:20 -35.80515 147.69222 35417 ft 474 kts 59°
2026-04-23 11:20 -35.76496 147.75778 35416 ft 472 kts 59°
2026-04-23 11:21 -35.72501 147.82285 35421 ft 472 kts 59°
2026-04-23 11:21 -35.68501 147.88789 35416 ft 472 kts 59°
2026-04-23 11:22 -35.64522 147.95247 35428 ft 472 kts 59°
2026-04-23 11:22 -35.60481 148.01790 35435 ft 473 kts 59°
2026-04-23 11:23 -35.56414 148.08369 35445 ft 472 kts 59°
2026-04-23 11:23 -35.52378 148.14877 35438 ft 473 kts 59°
2026-04-23 11:24 -35.48401 148.21283 35439 ft 473 kts 59°
2026-04-23 11:24 -35.44420 148.27683 35446 ft 474 kts 59°
2026-04-23 11:25 -35.40459 148.34061 35429 ft 449 kts 59°
2026-04-23 11:25 -35.38592 148.37030 35428 ft 429 kts 59°
2026-04-23 11:25 -35.36780 148.39928 35448 ft 424 kts 59°
2026-04-23 11:26 -35.33118 148.45793 35459 ft 438 kts 59°
2026-04-23 11:26 -35.29390 148.51738 35456 ft 437 kts 59°
2026-04-23 11:27 -35.25694 148.57628 35457 ft 435 kts 59°
2026-04-23 11:27 -35.21983 148.63531 35456 ft 438 kts 59°
2026-04-23 11:28 -35.18251 148.69461 35460 ft 436 kts 58°
2026-04-23 11:28 -35.14551 148.75322 35454 ft 427 kts 58°
2026-04-23 11:29 -35.10865 148.81161 35460 ft 428 kts 58°
2026-04-23 11:29 -35.07187 148.86972 35455 ft 429 kts 58°
2026-04-23 11:30 -35.03514 148.92767 35461 ft 429 kts 58°
2026-04-23 11:30 -34.99870 148.98506 35459 ft 429 kts 58°
2026-04-23 11:31 -34.96234 149.04222 35415 ft 431 kts 58°
2026-04-23 11:31 -34.94392 149.07120 35116 ft 432 kts 58°
2026-04-23 11:31 -34.92560 149.09992 34830 ft 430 kts 58°
2026-04-23 11:31 -34.90736 149.12851 34463 ft 429 kts 58°
2026-04-23 11:32 -34.88874 149.15768 34055 ft 428 kts 57°
2026-04-23 11:32 -34.87040 149.18642 33615 ft 428 kts 57°
2026-04-23 11:32 -34.85221 149.21486 33168 ft 429 kts 57°
2026-04-23 11:32 -34.83387 149.24350 32723 ft 430 kts 57°
2026-04-23 11:33 -34.81546 149.27231 32268 ft 429 kts 57°
2026-04-23 11:33 -34.79718 149.30084 31809 ft 430 kts 57°
2026-04-23 11:33 -34.77883 149.32945 31358 ft 429 kts 57°
2026-04-23 11:33 -34.76038 149.35818 30879 ft 429 kts 56°
2026-04-23 11:34 -34.74202 149.38702 30407 ft 428 kts 60°
2026-04-23 11:34 -34.72770 149.41801 30278 ft 420 kts 63°
2026-04-23 11:34 -34.70875 149.44542 30336 ft 429 kts 49°
2026-04-23 11:35 -34.66929 149.50075 30499 ft 431 kts 55°
2026-04-23 11:35 -34.65008 149.52995 30606 ft 428 kts 55°
2026-04-23 11:35 -34.63221 149.55862 30109 ft 417 kts 63°
2026-04-23 11:35 -34.62025 149.58990 28368 ft 421 kts 71°
2026-04-23 11:36 -34.60922 149.62227 26974 ft 415 kts 70°
2026-04-23 11:36 -34.59836 149.65375 26437 ft 391 kts 70°
2026-04-23 11:36 -34.58816 149.68333 25955 ft 371 kts 70°
2026-04-23 11:36 -34.57827 149.71217 25530 ft 379 kts 70°
2026-04-23 11:37 -34.56791 149.74225 25109 ft 400 kts 70°
2026-04-23 11:37 -34.55705 149.77379 24639 ft 397 kts 69°
2026-04-23 11:37 -34.54671 149.80366 24245 ft 380 kts 69°
2026-04-23 11:37 -34.53656 149.83305 23793 ft 372 kts 69°
2026-04-23 11:38 -34.52719 149.86017 23377 ft 364 kts 69°
2026-04-23 11:38 -34.51717 149.88901 22949 ft 359 kts 69°
2026-04-23 11:38 -34.50702 149.91840 22581 ft 391 kts 69°
2026-04-23 11:38 -34.49541 149.94786 22142 ft 388 kts 63°
2026-04-23 11:39 -34.48273 149.97652 21707 ft 387 kts 63°
2026-04-23 11:39 -34.46988 150.00557 21269 ft 392 kts 63°
2026-04-23 11:39 -34.45656 150.03564 20787 ft 388 kts 64°
2026-04-23 11:39 -34.44399 150.06396 20319 ft 378 kts 64°
2026-04-23 11:40 -34.43183 150.09135 19859 ft 370 kts 64°
2026-04-23 11:40 -34.42011 150.11777 19409 ft 366 kts 64°
2026-04-23 11:40 -34.40780 150.14549 18947 ft 366 kts 64°
2026-04-23 11:40 -34.39586 150.17233 18494 ft 364 kts 64°
2026-04-23 11:41 -34.38390 150.19920 18042 ft 362 kts 64°
2026-04-23 11:41 -34.37203 150.22588 17590 ft 360 kts 64°
2026-04-23 11:41 -34.36026 150.25221 17141 ft 356 kts 64°
2026-04-23 11:41 -34.34866 150.27829 16692 ft 352 kts 64°
2026-04-23 11:42 -34.33704 150.30431 16272 ft 349 kts 64°
2026-04-23 11:42 -34.32529 150.33061 15858 ft 346 kts 64°
2026-04-23 11:42 -34.31403 150.35582 15459 ft 343 kts 64°
2026-04-23 11:42 -34.30267 150.38118 15076 ft 341 kts 64°
2026-04-23 11:43 -34.29147 150.40619 14706 ft 338 kts 64°
2026-04-23 11:43 -34.28038 150.43097 14335 ft 337 kts 64°
2026-04-23 11:43 -34.26921 150.45599 13958 ft 334 kts 64°
2026-04-23 11:43 -34.25822 150.48055 13582 ft 332 kts 64°
2026-04-23 11:44 -34.24737 150.50479 13204 ft 329 kts 64°
2026-04-23 11:44 -34.23651 150.52907 12831 ft 327 kts 64°
2026-04-23 11:44 -34.22618 150.55215 12473 ft 325 kts 64°
2026-04-23 11:44 -34.21545 150.57610 12101 ft 323 kts 64°
2026-04-23 11:45 -34.20482 150.59982 11728 ft 321 kts 64°
2026-04-23 11:45 -34.19394 150.62402 11344 ft 318 kts 64°
2026-04-23 11:45 -34.18342 150.64748 10963 ft 316 kts 64°
2026-04-23 11:45 -34.17296 150.67078 10589 ft 315 kts 64°
2026-04-23 11:46 -34.16269 150.69363 10222 ft 314 kts 64°
2026-04-23 11:46 -34.15234 150.71664 9817 ft 312 kts 64°
2026-04-23 11:46 -34.14206 150.73949 9394 ft 307 kts 64°
2026-04-23 11:46 -34.13203 150.76173 8873 ft 295 kts 64°
2026-04-23 11:47 -34.12252 150.78279 8406 ft 279 kts 64°
2026-04-23 11:47 -34.11346 150.80287 7962 ft 266 kts 64°
2026-04-23 11:47 -34.10481 150.82207 7522 ft 256 kts 64°
2026-04-23 11:47 -34.09637 150.84084 7140 ft 255 kts 64°
2026-04-23 11:48 -34.08773 150.85948 6756 ft 255 kts 62°
2026-04-23 11:48 -34.07922 150.87797 6470 ft 251 kts 64°
2026-04-23 11:48 -34.07099 150.89639 6453 ft 250 kts 64°
2026-04-23 11:48 -34.06279 150.91475 6450 ft 252 kts 64°
2026-04-23 11:49 -34.05448 150.93337 6500 ft 250 kts 64°
2026-04-23 11:49 -34.04615 150.95204 6076 ft 256 kts 64°
2026-04-23 11:49 -34.03799 150.97034 6009 ft 246 kts 63°
2026-04-23 11:49 -34.02954 150.98848 6003 ft 248 kts 63°
2026-04-23 11:50 -34.01947 151.00540 5993 ft 254 kts 43°
2026-04-23 11:50 -34.00326 151.01468 6015 ft 262 kts 13°
2026-04-23 11:50 -33.98503 151.01376 5845 ft 271 kts 348°
2026-04-23 11:50 -33.96687 151.00804 5565 ft 267 kts 348°
2026-04-23 11:51 -33.94936 151.00249 5276 ft 264 kts 348°
2026-04-23 11:51 -33.93150 150.99681 4984 ft 263 kts 347°
2026-04-23 11:51 -33.91330 150.99106 4657 ft 255 kts 348°
2026-04-23 11:51 -33.89636 150.98570 4304 ft 251 kts 347°
2026-04-23 11:52 -33.87814 150.97996 3924 ft 246 kts 348°
2026-04-23 11:52 -33.86166 150.97481 3572 ft 243 kts 347°
2026-04-23 11:52 -33.84545 150.96973 3217 ft 240 kts 348°
2026-04-23 11:52 -33.82949 150.96472 3031 ft 227 kts 347°
2026-04-23 11:53 -33.81469 150.96001 2993 ft 216 kts 347°
2026-04-23 11:53 -33.79980 150.95523 3017 ft 224 kts 349°
2026-04-23 11:53 -33.78485 150.95625 3006 ft 216 kts 24°
2026-04-23 11:53 -33.77345 150.96709 3011 ft 209 kts 59°
2026-04-23 11:54 -33.76958 150.98363 3005 ft 205 kts 94°
2026-04-23 11:54 -33.77457 150.99930 2990 ft 207 kts 127°
2026-04-23 11:54 -33.78125 151.01447 3005 ft 208 kts 98°
2026-04-23 11:54 -33.77921 151.03136 3027 ft 204 kts 72°
2026-04-23 11:55 -33.77473 151.04741 2996 ft 201 kts 72°
2026-04-23 11:55 -33.77025 151.06322 2990 ft 198 kts 72°
2026-04-23 11:55 -33.76806 151.07932 2992 ft 196 kts 100°
2026-04-23 11:55 -33.77398 151.09404 3029 ft 197 kts 122°
2026-04-23 11:56 -33.78194 151.10826 3006 ft 197 kts 123°
2026-04-23 11:56 -33.78981 151.12221 2988 ft 197 kts 122°
2026-04-23 11:56 -33.79767 151.13501 2958 ft 179 kts 138°
2026-04-23 11:56 -33.80912 151.14047 2919 ft 181 kts 165°
2026-04-23 11:57 -33.82168 151.14384 2624 ft 180 kts 163°
2026-04-23 11:57 -33.83374 151.14696 2323 ft 172 kts 165°
2026-04-23 11:57 -33.84529 151.14992 2031 ft 163 kts 164°
2026-04-23 11:57 -33.85637 151.15277 1724 ft 155 kts 164°
2026-04-23 11:58 -33.86672 151.15546 1437 ft 147 kts 164°
2026-04-23 11:58 -33.87616 151.15790 1167 ft 147 kts 165°
2026-04-23 11:58 -33.88614 151.16045 904 ft 149 kts 166°
2026-04-23 11:58 -33.89630 151.16289 717 ft 147 kts 166°
2026-04-23 11:59 -33.90628 151.16563 529 ft 147 kts 165°
2026-04-23 11:59 -33.91621 151.16814 315 ft 146 kts 166°
2026-04-23 11:59 -33.92635 151.17085 145 ft 145 kts 166°
2026-04-23 11:59 -33.93618 151.17335 13 ft 136 kts 166°
2026-04-23 12:00 -33.94370 151.17539 22 ft 76 kts 170°
2026-04-23 12:00 -33.94768 151.17631 22 ft 53 kts 168°
2026-04-23 12:00 -33.95084 151.17627 17 ft 17 kts 193°
2026-04-23 12:00 -33.95156 151.17560 16 ft 13 kts 278°
2026-04-23 12:01 -33.95082 151.17511 17 ft 11 kts 349°
2026-04-23 12:01 -33.95009 151.17491 17 ft 9 kts 350°
2026-04-23 12:01 -33.94946 151.17477 18 ft 8 kts 348°
2026-04-23 12:01 -33.94889 151.17464 18 ft 7 kts 350°
2026-04-23 12:02 -33.94841 151.17453 19 ft 6 kts 346°
2026-04-23 12:02 -33.94784 151.17436 19 ft 11 kts 345°
2026-04-23 12:02 -33.94660 151.17403 20 ft 23 kts 347°
2026-04-23 12:02 -33.94461 151.17351 21 ft 32 kts 349°
2026-04-23 12:03 -33.94238 151.17291 20 ft 31 kts 347°
2026-04-23 12:03 -33.94026 151.17239 19 ft 26 kts 346°
2026-04-23 12:03 -33.93989 151.17146 22 ft 12 kts 253°
2026-04-23 12:03 -33.94015 151.17038 24 ft 14 kts 253°
2026-04-23 12:04 -33.94045 151.16914 24 ft 17 kts 255°
2026-04-23 12:04 -33.94033 151.16808 24 ft 12 kts 332°
2026-04-23 12:04 -33.93953 151.16779 24 ft 11 kts 343°
2026-04-23 12:04 -33.93917 151.16777 25 ft 2 kts 34°
2026-04-23 12:05 -33.93910 151.16789 25 ft 2 kts 62°
2026-04-23 12:05 -33.93901 151.16820 26 ft 3 kts 75°
2026-04-23 12:05 -33.93898 151.16835 27 ft 1 kts 75°
2026-04-23 12:05 -33.93895 151.16847 27 ft 2 kts 74°
2026-04-23 12:06 -33.93892 151.16862 27 ft 1 kts 73°
2026-04-23 12:06 -33.93889 151.16870 27 ft 0 kts 73°